Carbondale, IL

5:18 PM CDT on July 24, 2017 (GMT -0500)
Southern Illinois

Weather History for KMDH - September, 2011

Change the Weather History Date:

Wednesday, September 7, 2011

  Actual Average Record
Temperature  
Mean Temperature 64 °F -  
Max Temperature 78 °F 86 °F 106 °F (1925)
Min Temperature 51 °F 58 °F 38 °F (1988)
Degree Days  
Heating Degree Days 1    
Growing Degree Days 14 (Base 50)    
Moisture  
Dew Point 46 °F    
Average Humidity 59    
Maximum Humidity 89    
Minimum Humidity 23    
Precipitation  
Precipitation 0.00 in - - ()
Sea Level Pressure  
Sea Level Pressure 30.08 in    
Wind  
Wind Speed 8 mph (NNW)    
Max Wind Speed 16 mph    
Max Gust Speed 24 mph    
Visibility 10 miles    
Events      
Averages and records for this station are not official NWS values.
T = Trace of Precipitation, MM = Missing Value Source: NWS Daily Summary

Daily Weather History Graph

Daily Weather History Graph

Search for Another Location

Airport or City:

Trip Planner

Search our weather history database for the weather conditions in past years. The results will help you decide how hot, cold, wet, or windy it might be!

Date:

Astronomy

Sep. 07, 2011 Rise Set
Actual Time 6:31 AM CDT 7:17 PM CDT
Civil Twilight 6:05 AM CDT 7:44 PM CDT
Nautical Twilight 5:33 AM CDT 8:15 PM CDT
Astronomical Twilight 5:01 AM CDT 8:47 PM CDT
Moon 4:31 PM CDT (9/7) 1:52 AM CDT (9/7)
Length of Visible Light 13h 38m
Length of Day
12h 45m
Waxing Gibbous, 80% of the Moon is Illuminated
Sep 7
Waxing Gibbous
Sep 12
Full
Sep 20
Last Quarter
Sep 27
New
Oct 3
First Quarter

Hourly Weather History & Observations

Time (CDT) Temp. Dew Point Humidity Pressure Visibility Wind Dir Wind Speed Gust Speed Precip Events Conditions
12:52 AM 53.1 °F 46.9 °F 80% 30.06 in 10.0 mi NNW 3.5 mph - N/A   Clear
1:52 AM 53.1 °F 46.9 °F 80% 30.05 in 10.0 mi North 6.9 mph - N/A   Clear
2:52 AM 53.1 °F 48.0 °F 83% 30.05 in 10.0 mi NNW 5.8 mph - N/A   Clear
3:52 AM 53.1 °F 48.0 °F 83% 30.06 in 10.0 mi NNW 8.1 mph - N/A   Clear
4:52 AM 52.0 °F 48.0 °F 86% 30.07 in 10.0 mi NNW 5.8 mph - N/A   Clear
5:52 AM 52.0 °F 48.0 °F 86% 30.08 in 10.0 mi NNW 8.1 mph - N/A   Clear
6:52 AM 51.1 °F 48.0 °F 89% 30.09 in 10.0 mi NNW 5.8 mph - N/A   Clear
7:52 AM 55.9 °F 50.0 °F 80% 30.12 in 10.0 mi NNW 5.8 mph - N/A   Clear
8:52 AM 61.0 °F 50.0 °F 67% 30.13 in 10.0 mi North 9.2 mph - N/A   Clear
9:52 AM 66.0 °F 48.9 °F 54% 30.12 in 10.0 mi North 16.1 mph 21.9 mph N/A   Clear
11:52 AM 72.0 °F 46.9 °F 41% 30.12 in 10.0 mi NNW 15.0 mph 23.0 mph N/A   Clear
12:52 PM 73.0 °F 48.0 °F 41% 30.09 in 10.0 mi NNW 16.1 mph 23.0 mph N/A   Clear
1:52 PM 75.0 °F 48.9 °F 40% 30.08 in 10.0 mi NW 15.0 mph 21.9 mph N/A   Clear
2:52 PM 75.9 °F 45.0 °F 33% 30.06 in 10.0 mi North 15.0 mph 24.2 mph N/A   Clear
3:52 PM 77.0 °F 45.0 °F 32% 30.06 in 10.0 mi NNW 11.5 mph 19.6 mph N/A   Clear
4:52 PM 77.0 °F 42.1 °F 29% 30.06 in 10.0 mi NNW 15.0 mph 21.9 mph N/A   Clear
5:52 PM 75.9 °F 35.1 °F 23% 30.07 in 10.0 mi North 12.7 mph 20.7 mph N/A   Clear
6:52 PM 72.0 °F 36.0 °F 27% 30.07 in 10.0 mi North 6.9 mph - N/A   Clear
7:52 PM 63.0 °F 43.0 °F 48% 30.08 in 10.0 mi NW 3.5 mph - N/A   Clear
9:52 PM 59.0 °F 45.0 °F 60% 30.11 in 10.0 mi NNW 4.6 mph - N/A   Clear
11:52 PM 57.0 °F 46.9 °F 69% 30.11 in 10.0 mi NW 4.6 mph - N/A   Clear